Location: Unspecified
(0.0000°N, 0.0000°E)
Time: 23:35:10
(UTC+00:00)

Vanguard 1 - Pass Details

Date: 04 October 2020
Orbit: 649 x 3833 km, 34.3° (Epoch: 28 October)

Event Time Altitude Azimuth Distance (km) Brightness Sun altitude
Rises 02:54:14 0° 323° (NW) 3,102 - -43.4°
Reaches altitude 10° 02:56:22 10° 331° (NNW) 2,328 - -42.9°
Maximum altitude 03:01:23 41° 42° (NE) 1,432 - -41.7°
Exits shadow 03:02:57 36° 73° (ENE) 1,674 11.4 -41.3°
Drops below altitude 10° 03:09:25 10° 110° (ESE) 3,739 13.7 -39.7°
Sets 03:13:48 0° 116° (ESE) 5,261 14.6 -38.6°
